Regional Weather Roundup
Issued by NWS New Orleans/Baton Rouge, LA

Home | Current Version | Previous Version | Text Only | Print | Product List | Glossary Off
Versions: 1 2 3 4 5 6 7 8 9 10 11 12 13 14 15 16 17 18 19 20 21 22 23 24 25 26 27 28 29 30 31 32 33 34 35 36 37 38 39 40 41 42 43 44 45 46 47 48 49 50

086
ASUS44 KLIX 280512
RWRLIX
NEW ORLEANS REGIONAL WEATHER ROUNDUP
NATIONAL WEATHER SERVICE NEW ORLEANS LA
1200 AM CDT SAT MAR 28 2015

NOTE: "FAIR" INDICATES FEW OR NO CLOUDS BELOW 12,000 FEET WITH NO
      SIGNIFICANT WEATHER AND/OR OBSTRUCTIONS TO VISIBILITY.
      SKY/WX - SKY CONDITION AND SIGNIFICANT WEATHER.
      TMP - AIR TEMPERATURE.     DP    - DEWPOINT TEMPERATURE.
      RH  - RELATIVE HUMIDITY.   PRES  - PRESSURE.
      HI  - HEAT INDEX.          WCI   - WIND CHILL INDEX.

*  THESE STATIONS ARE NOT NWS OR FAA STATIONS AND ARE NOT UNDER
   NWS QUALITY CONTROL.

LAZ038-040-048-061>063-065>067-069-280600-
SOUTHEAST LOUISIANA

CITY           SKY/WX    TMP DP  RH WIND       PRES   REMARKS
N.O. AUDUBON     N/A     59 N/A N/A MISG        N/A
N.O. INTL ARPT   N/A     58  39  49 NE12      30.16R
N.O. LAKEFRONT CLEAR     60  40  47 NE18      30.16R
SLIDELL        CLEAR     50  40  68 N7        30.15R
BATON ROUGE    CLEAR     53  41  63 NE6       30.17R
BOOTHVILLE     CLEAR     59  48  67 N3        30.15R
BELLE CHASSE   CLEAR     53  39  59 NE6       30.16R
BOGALUSA*        N/A     47  40  75 N3        30.17R
GALLIANO*      CLEAR     58  54  86 CALM      30.14S
NEW ROADS*       N/A     53  41  64 CALM      30.18R
GONZALES*        N/A     55  41  58 NE6       30.16R
HAMMOND*       PTCLDY    50  39  66 CALM      30.19R
HOUMA*         CLEAR     56  54  92 W5        30.14R
PORT FOURCHON* CLEAR     64  52  63 W10G17    30.18R

$$

MSZ070-080>082-280600-
SOUTHERN MISSISSIPPI

CITY           SKY/WX    TMP DP  RH WIND       PRES   REMARKS
MCCOMB         CLEAR     49  38  65 N5        30.16R
GULFPORT       CLEAR     53  35  50 N6        30.14R
BILOXI         CLEAR     53  36  52 N9        30.14R
PASCAGOULA     CLEAR     49  38  65 N6        30.15R

$$

COASTAL OBSERVATIONS
LAKE AND NEARSHORE STATIONS

STATION/POSITION TIME  TEMP    WIND        PRES    WAVE
                       AIR SEA DIR/SP/G            HT/PER
                 (UTC) (F)     (DEG/KT/KT) (MB)    (FT/S)
PASCAGOULA       0400   56     360/  8/ 11 1019.8
WAVELAND YACHT   0400   56 66   10/ 11/ 12 1020.5
GRAND ISLE       0400          290/ 14/ 16   N/A
SOUTHWEST PASS   0400   60 52  330/ 10/ 11 1020.3
NEW CANAL        0400   61      40/ 19/ 21 1020.7
SHELL BEACH      0400   61 68   20/ 23/ 25 1020.2

OFFSHORE STATIONS

STATION/POSITION TIME  TEMP    WIND        PRES    WAVE
                       AIR SEA DIR/SP/G            HT/PER
                 (UTC) (F)     (DEG/KT/KT) (MB)    (FT/S)
64 S DAUPHIN ISL 0450   63 71   10/ 16/ 21 1020.1    4/ 5

$$




USA.gov is the U.S. government's official web portal to all federal, state and local government web resources and services.